Regional Weather Roundup
Issued by NWS

Home | Current Version | Previous Version | Text Only | Print | Product List | Glossary Off
Versions: 1 2 3 4 5 6 7 8 9 10 11 12 13 14 15 16 17 18 19 20 21 22 23 24 25 26 27 28 29 30 31 32 33 34 35 36 37 38 39 40 41 42 43 44 45 46 47 48 49 50

000
ASUS45 KBOI 181910
RWRID
WEATHER ROUNDUP FOR IDAHO
NATIONAL WEATHER SERVICE BOISE ID
100 PM MDT THU SEP 18 2014

NOTE: "FAIR" INDICATES FEW OR NO CLOUDS BELOW 12000 FEET
WITH NO SIGNIFICANT WEATHER AND/OR OBSTRUCTIONS TO VISIBILITY

IDZ012-014-182000-
SOUTHWEST IDAHO


CITY           SKY/WX    TMP DP  RH WIND       PRES   REMARKS
BOISE          PTSUNNY   81  42  25 E8        29.82F
CALDWELL       PTSUNNY   81  52  36 N3        29.82F
MOUNTAIN HOME  PTSUNNY   80  43  26 NW2       29.83F SMOKE
$$

IDZ016-017-182000-
SOUTHCENTRAL IDAHO


CITY           SKY/WX    TMP DP  RH WIND       PRES   REMARKS
BURLEY         MOSUNNY   78  48  34 W16G24    29.88S
JEROME         PTSUNNY   73  50  44 SW10      29.90S
TWIN FALLS     PTSUNNY   81  43  26 W13       29.90F
$$

IDZ019>023-182000-
SOUTHEAST IDAHO


CITY           SKY/WX    TMP DP  RH WIND       PRES   REMARKS
IDAHO FALLS    PTSUNNY   84  50  30 SW15G23   29.89F
POCATELLO      MOSUNNY   82  47  29 W18       29.88F
REXBURG        PTSUNNY   77  49  37 SW7       29.91F
$$

IDZ006-010-011-018-031-032-182000-
CENTRAL IDAHO MOUNTAINS


CITY           SKY/WX    TMP DP  RH WIND       PRES   REMARKS
MCCALL         PTSUNNY   73  40  30 S16       29.91F
HAILEY         PTSUNNY   73  48  40 N7        29.96S
STANLEY          N/A     57  49  74 N5        30.08F
SALMON         CLOUDY    63  54  72 CALM      29.90F
CHALLIS        CLOUDY    63  50  62 CALM      29.98R
$$

IDZ002-004-006-007-026-182000-
NORTHERN IDAHO


CITY           SKY/WX    TMP DP  RH WIND       PRES   REMARKS
LEWISTON       MOSUNNY   79  43  27 VRB3      29.74F
LOWELL           N/A     73  56  54 CALM      29.76F
COEUR D`ALENE  CLOUDY    72  46  40 S8        29.77R
MULLAN PASS    MOSUNNY   63  35  35 SW9G21    29.91S
$$


USA.gov is the U.S. government's official web portal to all federal, state and local government web resources and services.